This demonstration page uses our WeatherBlox Daily Observations layout. Learn more.

Left ArrowRight Arrow

44.8408, -93.29828

Hourly Observations for August 4, 2021

Temp ( °F °C ) Dew Point ( °F °C ) Humidity (%) Winds ( mph kmh ) Pressure ( in mb ) Visibility ( mi km ) Precip ( " mm )
12:53 am 00:53 Clear 73 22.8 58 14.4 59 59 SW 7 11 30.06 1018 7 11 0.00 0.00
1:53 am 01:53 Clear 72 22.2 58 14.4 61 61 SW 6 9 30.06 1018 7 11 0.00 0.00
2:53 am 02:53 Clear 70 21.1 57 13.9 64 64 SW 8 13 30.06 1018 7 11 0.00 0.00
3:53 am 03:53 Clear 69 20.6 58 14.4 68 68 SW 7 11 30.06 1018 8 13 0.00 0.00
4:53 am 04:53 Clear 68 20 58 14.4 70 70 WSW 5 7 30.07 1018 8 13 0.00 0.00
5:53 am 05:53 Mostly Clear 67 19.4 58 14.4 73 73 Calm 30.08 1019 8 13 0.00 0.00
6:53 am 06:53 Partly Cloudy 66 18.9 58 14.4 75 75 SSW 3 6 30.09 1019 8 13 0.00 0.00
7:53 am 07:53 Partly Cloudy 68 20 58 14.4 70 70 S 3 6 30.10 1019 8 13 0.00 0.00
8:53 am 08:53 Mostly Sunny 71 21.7 58 14.4 63 63 VRB 5 7 30.10 1019 8 13 0.00 0.00
9:53 am 09:53 Mostly Sunny 76 24.4 58 14.4 54 54 WSW 8 13 30.09 1019 10 16 0.00 0.00
10:53 am 10:53 Mostly Sunny 79 26.1 57 13.9 47 47 SW 8 13 30.08 1019 10 16 0.00 0.00
11:53 am 11:53 Mostly Sunny 80 26.7 56 13.3 44 44 SSW 9 15 30.08 1019 10 16 0.00 0.00
12:53 pm 12:53 Partly Cloudy 83 28.3 55 12.8 38 38 SW 13 20 30.06 1018 10 16 0.00 0.00
1:53 pm 13:53 Mostly Cloudy 83 28.3 54 12.2 37 37 S 13 20 30.05 1018 10 16 0.00 0.00
2:53 pm 14:53 Mostly Cloudy 83 28.3 54 12.2 37 37 SW 13 20 30.04 1017 10 16 0.00 0.00
3:53 pm 15:53 Mostly Cloudy 83 28.3 55 12.8 38 38 SSW 12 19 30.03 1017 10 16 0.00 0.00
4:53 pm 16:53 Mostly Cloudy 81 27.2 56 13.3 42 42 SW 14 22 30.02 1017 10 16 0.00 0.00
5:53 pm 17:53 Mostly Cloudy 80 26.7 56 13.3 44 44 SW 12 19 30.02 1017 10 16 0.00 0.00
6:53 pm 18:53 Cloudy 80 26.7 57 13.9 45 45 SSW 12 19 30.01 1016 10 16 0.00 0.00
7:53 pm 19:53 Cloudy 79 26.1 58 14.4 49 49 SSW 7 11 30.01 1016 10 16 0.00 0.00
8:53 pm 20:53 Cloudy 78 25.6 58 14.4 50 50 S 8 13 30.01 1016 10 16 0.00 0.00
9:53 pm 21:53 Cloudy 77 25 58 14.4 52 52 S 9 15 30.01 1016 10 16 0.00 0.00
10:53 pm 22:53 Partly Cloudy 74 23.3 59 15 60 60 SSE 7 11 30.00 1016 10 16 0.00 0.00
11:53 pm 23:53 Mostly Cloudy 74 23.3 60 15.6 62 62 S 9 15 29.99 1016 10 16 0.00 0.00

Powered by AerisWeather